| time (UTC) | temp F | wind direction | speed knots | gust knots | rain 1hr in | rain 24hr in | rain mn in | humidity % | barometer mb |
| 20260510151556 | 60 | 355 | 0.0 | 0.9 | 0.00 | 0.22 | 0.00 | 60 | 1013.8 |
| 20260510150119 | 58 | 350 | 0.0 | 0.0 | 0.00 | 0.22 | 0.00 | 66 | 1013.6 |
| 20260510144608 | 58 | 5 | 0.0 | 0.0 | 0.00 | 0.22 | 0.00 | 71 | 1013.2 |
| 20260510143046 | 57 | 346 | 0.0 | 0.9 | 0.00 | 0.22 | 0.00 | 73 | 1013.0 |
| 20260510141545 | 55 | 348 | 0.0 | 0.0 | 0.00 | 0.22 | 0.00 | 80 | 1013.1 |
| 20260510140044 | 53 | 355 | 0.0 | 0.0 | 0.00 | 0.22 | 0.00 | 83 | 1012.9 |
| 20260510134548 | 55 | 302 | 0.0 | 0.0 | 0.00 | 0.22 | 0.00 | 79 | 1012.7 |
| 20260510133046 | 58 | 297 | 0.0 | 6.1 | 0.00 | 0.22 | 0.00 | 78 | 1012.4 |
| 20260510131543 | 56 | 323 | 0.0 | 5.2 | 0.00 | 0.22 | 0.00 | 85 | 1012.2 |
| 20260510130038 | 56 | 327 | 0.0 | 4.3 | 0.00 | 0.24 | 0.00 | 84 | 1012.2 |
| 20260510124538 | 57 | 212 | 0.0 | 2.6 | 0.00 | 0.24 | 0.00 | 83 | 1012.0 |
| 20260510123034 | 56 | 181 | 0.0 | 3.5 | 0.00 | 0.24 | 0.00 | 87 | 1012.0 |
| 20260510121533 | 54 | 173 | 0.0 | 2.6 | 0.00 | 0.24 | 0.00 | 89 | 1012.1 |
| 20260510120029 | 53 | 175 | 0.0 | 0.0 | 0.00 | 0.25 | 0.00 | 89 | 1012.1 |
| 20260510114536 | 53 | 174 | 0.0 | 0.0 | 0.00 | 0.25 | 0.00 | 92 | 1011.9 |
| 20260510113032 | 51 | 172 | 0.0 | 0.0 | 0.00 | 0.25 | 0.00 | 92 | 1011.7 |
| 20260510111525 | 50 | 172 | 0.0 | 0.0 | 0.00 | 0.25 | 0.00 | 92 | 1011.4 |
| 20260510110023 | 49 | 172 | 0.0 | 0.0 | 0.00 | 0.32 | 0.00 | 92 | 1011.2 |
| 20260510104514 | 49 | 172 | 0.0 | 0.0 | 0.00 | 0.32 | 0.00 | 92 | 1010.9 |
| 20260510103012 | 49 | 172 | 0.0 | 0.0 | 0.00 | 0.32 | 0.00 | 92 | 1010.7 |
| 20260510101512 | 49 | 172 | 0.0 | 0.0 | 0.00 | 0.32 | 0.00 | 92 | 1010.5 |
| 20260510100007 | 49 | 190 | 0.0 | 4.3 | 0.00 | 0.39 | 0.00 | 91 | 1010.3 |
| 20260510094507 | 49 | 112 | 0.0 | 0.0 | 0.00 | 0.39 | 0.00 | 91 | 1010.1 |
| 20260510093005 | 49 | 104 | 0.0 | 2.6 | 0.00 | 0.39 | 0.00 | 91 | 1009.8 |
| 20260510091501 | 49 | 101 | 0.0 | 0.9 | 0.00 | 0.39 | 0.00 | 92 | 1009.5 |
| 20260510090101 | 48 | 101 | 0.0 | 2.6 | 0.00 | 0.43 | 0.39 | 92 | 1009.5 |
| 20260510084600 | 49 | 101 | 0.0 | 0.0 | 0.00 | 0.43 | 0.39 | 91 | 1009.4 |
| 20260510083100 | 49 | 101 | 0.0 | 4.3 | 0.00 | 0.43 | 0.39 | 91 | 1009.4 |
| 20260510081559 | 49 | 101 | 0.0 | 0.0 | 0.00 | 0.43 | 0.39 | 92 | 1009.3 |
| 20260510080101 | 49 | 101 | 0.0 | 0.0 | 0.00 | 0.44 | 0.39 | 92 | 1009.2 |
| 20260510074607 | 49 | 101 | 0.0 | 0.0 | 0.00 | 0.44 | 0.39 | 92 | 1009.5 |
| 20260510073100 | 49 | 101 | 0.0 | 0.0 | 0.00 | 0.44 | 0.39 | 92 | 1009.3 |
| 20260510071603 | 48 | 96 | 0.0 | 0.0 | 0.00 | 0.44 | 0.39 | 92 | 1009.0 |
| 20260510070109 | 48 | 96 | 0.0 | 7.0 | 0.00 | 0.44 | 0.39 | 92 | 1009.1 |
| 20260510064501 | 48 | 166 | 0.0 | 0.0 | 0.00 | 0.44 | 0.39 | 92 | 1009.3 |
| 20260510063103 | 48 | 166 | 0.0 | 1.7 | 0.00 | 0.44 | 0.39 | 91 | 1009.1 |
| 20260510061600 | 48 | 166 | 0.0 | 0.0 | 0.00 | 0.44 | 0.39 | 91 | 1009.2 |
| 20260510054605 | 49 | 166 | 0.0 | 3.5 | 0.00 | 0.45 | 0.39 | 91 | 1009.2 |
| 20260510053057 | 49 | 36 | 0.0 | 1.7 | 0.00 | 0.45 | 0.39 | 91 | 1009.0 |
| 20260510051557 | 49 | 36 | 0.0 | 0.0 | 0.00 | 0.45 | 0.39 | 91 | 1009.3 |
| 20260510050059 | 49 | 36 | 0.0 | 0.0 | 0.01 | 0.51 | 0.39 | 91 | 1009.6 |
| 20260510044611 | 49 | 36 | 0.0 | 0.9 | 0.03 | 0.51 | 0.39 | 91 | 1009.6 |
| 20260510043101 | 49 | 36 | 0.0 | 3.5 | 0.04 | 0.51 | 0.39 | 91 | 1009.7 |
| 20260510041559 | 49 | 100 | 0.0 | 5.2 | 0.06 | 0.51 | 0.39 | 91 | 1009.6 |
| 20260510040056 | 49 | 136 | 1.7 | 4.3 | 0.08 | 0.52 | 0.38 | 91 | 1010.0 |
| 20260510034555 | 49 | 145 | 0.9 | 2.6 | 0.08 | 0.51 | 0.37 | 89 | 1010.0 |
| 20260510033120 | 49 | 271 | 0.0 | 0.0 | 0.06 | 0.49 | 0.35 | 88 | 1010.1 |
| 20260510031619 | 50 | 277 | 0.0 | 2.6 | 0.05 | 0.48 | 0.34 | 86 | 1010.3 |
| 20260510030054 | 51 | 302 | 2.6 | 18.2 | 0.01 | 0.46 | 0.30 | 84 | 1010.2 |
| 20260510024553 | 52 | 302 | 9.6 | 18.2 | 0.00 | 0.45 | 0.28 | 87 | 1010.0 |
| 20260510023052 | 53 | 244 | 0.0 | 0.0 | 0.00 | 0.45 | 0.28 | 88 | 1009.0 |
| 20260510021551 | 53 | 243 | 0.0 | 2.6 | 0.00 | 0.45 | 0.28 | 88 | 1009.1 |
| 20260510020051 | 54 | 182 | 0.0 | 3.5 | 0.00 | 0.45 | 0.28 | 87 | 1008.3 |
| 20260510014602 | 54 | 126 | 0.9 | 6.1 | 0.00 | 0.45 | 0.28 | 87 | 1008.0 |
| 20260510013050 | 54 | 121 | 3.5 | 8.7 | 0.00 | 0.45 | 0.28 | 87 | 1007.4 |
| 20260510011557 | 54 | 120 | 0.0 | 11.3 | 0.00 | 0.45 | 0.28 | 88 | 1007.4 |
| 20260510010100 | 54 | 123 | 1.7 | 7.0 | 0.00 | 0.45 | 0.28 | 88 | 1007.3 |
| 20260510004555 | 54 | 133 | 0.0 | 4.3 | 0.00 | 0.45 | 0.28 | 88 | 1007.4 |
| 20260510003059 | 54 | 163 | 0.0 | 4.3 | 0.00 | 0.45 | 0.28 | 88 | 1007.3 |
| 20260510001549 | 54 | 113 | 0.0 | 4.3 | 0.00 | 0.45 | 0.28 | 87 | 1007.0 |
| 20260510000054 | 55 | 119 | 0.9 | 7.0 | 0.00 | 0.46 | 0.28 | 86 | 1006.9 |
| 20260509234604 | 55 | 137 | 0.0 | 5.2 | 0.00 | 0.46 | 0.28 | 85 | 1007.0 |
| 20260509233049 | 56 | 139 | 0.0 | 0.9 | 0.00 | 0.46 | 0.28 | 83 | 1006.8 |
| 20260509231548 | 57 | 139 | 0.0 | 3.5 | 0.00 | 0.46 | 0.28 | 82 | 1006.7 |
| 20260509230053 | 57 | 167 | 1.7 | 6.1 | 0.00 | 0.46 | 0.28 | 82 | 1006.6 |
| 20260509224546 | 57 | 144 | 0.0 | 3.5 | 0.00 | 0.46 | 0.28 | 82 | 1006.5 |
| 20260509223055 | 56 | 202 | 0.9 | 4.3 | 0.00 | 0.46 | 0.28 | 83 | 1006.6 |
| 20260509221549 | 56 | 160 | 0.0 | 5.2 | 0.00 | 0.46 | 0.28 | 84 | 1006.7 |
| 20260509220055 | 56 | 152 | 0.9 | 4.3 | 0.00 | 0.46 | 0.28 | 86 | 1006.7 |
| 20260509214543 | 56 | 123 | 2.6 | 8.7 | 0.00 | 0.46 | 0.28 | 85 | 1006.6 |
| 20260509213043 | 56 | 138 | 1.7 | 7.8 | 0.00 | 0.46 | 0.28 | 86 | 1006.9 |
| 20260509211543 | 56 | 197 | 0.9 | 6.1 | 0.00 | 0.46 | 0.28 | 88 | 1007.0 |
| 20260509210038 | 55 | 208 | 1.7 | 7.0 | 0.00 | 0.46 | 0.28 | 89 | 1007.0 |
| 20260509204541 | 54 | 126 | 0.0 | 6.1 | 0.00 | 0.46 | 0.28 | 91 | 1007.0 |
| 20260509203036 | 54 | 205 | 0.0 | 7.0 | 0.02 | 0.46 | 0.28 | 92 | 1007.3 |
| 20260509201531 | 53 | 80 | 0.0 | 6.1 | 0.06 | 0.46 | 0.28 | 92 | 1007.6 |
| 20260509200036 | 52 | 159 | 0.0 | 3.5 | 0.07 | 0.46 | 0.28 | 93 | 1007.7 |
| 20260509194537 | 51 | 131 | 0.0 | 3.5 | 0.08 | 0.46 | 0.28 | 92 | 1007.7 |
| 20260509193036 | 51 | 131 | 0.0 | 6.1 | 0.07 | 0.45 | 0.28 | 92 | 1007.9 |
| 20260509191526 | 52 | 107 | 1.7 | 6.1 | 0.02 | 0.40 | 0.23 | 92 | 1007.9 |
| 20260509190027 | 51 | 117 | 0.9 | 8.7 | 0.02 | 0.39 | 0.22 | 92 | 1007.9 |
| 20260509184522 | 51 | 121 | 1.7 | 9.6 | 0.02 | 0.38 | 0.21 | 92 | 1008.0 |
| 20260509183022 | 51 | 165 | 0.9 | 7.0 | 0.02 | 0.38 | 0.21 | 92 | 1008.0 |
| 20260509181521 | 51 | 116 | 1.7 | 7.8 | 0.03 | 0.38 | 0.21 | 92 | 1008.0 |
| 20260509180018 | 50 | 151 | 1.7 | 4.3 | 0.02 | 0.37 | 0.20 | 92 | 1008.1 |
| 20260509174518 | 50 | 154 | 0.0 | 0.9 | 0.01 | 0.36 | 0.19 | 92 | 1008.2 |
| 20260509173018 | 50 | 154 | 0.0 | 3.5 | 0.01 | 0.36 | 0.19 | 92 | 1008.2 |
| 20260509171516 | 50 | 154 | 0.0 | 2.6 | 0.01 | 0.35 | 0.18 | 92 | 1008.1 |
| 20260509170015 | 50 | 119 | 0.0 | 7.0 | 0.01 | 0.35 | 0.18 | 92 | 1008.2 |
| 20260509164512 | 50 | 144 | 0.9 | 4.3 | 0.01 | 0.35 | 0.18 | 92 | 1008.1 |
| 20260509163018 | 49 | 144 | 0.0 | 6.1 | 0.01 | 0.35 | 0.18 | 92 | 1008.1 |
| 20260509161512 | 49 | 148 | 0.9 | 6.1 | 0.00 | 0.34 | 0.17 | 92 | 1008.1 |
| 20260509160009 | 49 | 111 | 1.7 | 10.4 | 0.00 | 0.34 | 0.17 | 92 | 1008.3 |
| 20260509154506 | 49 | 126 | 0.9 | 7.8 | 0.00 | 0.34 | 0.17 | 91 | 1008.4 |
| 20260509153011 | 49 | 163 | 0.9 | 9.6 | 0.00 | 0.34 | 0.17 | 91 | 1008.6 |